Voltar ao catálogo

STARLINK-6338

AtivoComunicaçõesVLEO
NORAD 57364·PAYLOAD·🇺🇸 United States

Lançado Jul 16, 2023 de Cape Canaveral Space Force Station

Loading…

Próximas Passagens (próximas 24 horas)

TLE

AtualizadoSource: CelesTrak SupGP

Época: Sep 14, 2026, 22:09 UTC

1 57364C 23099AN  26257.92340278  .00035306  00000+0  12791-2 0  2570
2 57364  43.0003 252.7706 0001522 263.5377  62.3955 15.27552606    19

Acompanhe STARLINK-6338 em tempo real com AllMySat

Download on the App Store